TimeCDT,TemperatureF,Dew PointF,Humidity,Sea Level PressureIn,VisibilityMPH,Wind Direction,Wind SpeedMPH,Gust SpeedMPH,PrecipitationIn,Events,Conditions,WindDirDegrees,DateUTC
12:13 AM,66.2,62.6,88,30.12,10.0,Calm,Calm,-,N/A,,Scattered Clouds,0,2013-07-18 05:13:00
12:33 AM,66.2,62.6,88,30.11,10.0,Calm,Calm,-,N/A,,Clear,0,2013-07-18 05:33:00
12:53 AM,64.4,62.6,94,30.10,10.0,Calm,Calm,-,N/A,,Clear,0,2013-07-18 05:53:00
1:13 AM,64.4,62.6,94,30.09,10.0,Calm,Calm,-,N/A,,Clear,0,2013-07-18 06:13:00
1:33 AM,64.4,62.6,94,30.09,5.0,Calm,Calm,-,N/A,,Clear,0,2013-07-18 06:33:00
1:53 AM,64.4,62.6,94,30.09,10.0,ENE,3.5,-,N/A,,Clear,60,2013-07-18 06:53:00
2:13 AM,64.4,62.6,94,30.07,10.0,ENE,3.5,-,N/A,,Clear,60,2013-07-18 07:13:00
2:33 AM,64.4,62.6,94,30.07,10.0,Calm,Calm,-,N/A,,Clear,0,2013-07-18 07:33:00
2:53 AM,64.4,62.6,94,30.06,10.0,East,3.5,-,N/A,,Clear,100,2013-07-18 07:53:00
3:13 AM,64.4,62.6,94,30.06,10.0,East,3.5,-,N/A,,Scattered Clouds,90,2013-07-18 08:13:00
3:33 AM,64.4,62.6,94,30.05,10.0,East,3.5,-,N/A,,Scattered Clouds,100,2013-07-18 08:33:00
3:53 AM,64.4,62.6,94,30.04,10.0,Calm,Calm,-,N/A,,Clear,0,2013-07-18 08:53:00
4:13 AM,64.4,62.6,94,30.02,10.0,Calm,Calm,-,N/A,,Scattered Clouds,0,2013-07-18 09:13:00
4:33 AM,64.4,62.6,94,30.02,10.0,SE,3.5,-,N/A,,Scattered Clouds,140,2013-07-18 09:33:00
4:53 AM,66.2,62.6,88,30.00,10.0,Calm,Calm,-,N/A,,Clear,0,2013-07-18 09:53:00
5:13 AM,66.2,64.4,94,29.99,7.0,SE,3.5,-,N/A,,Clear,130,2013-07-18 10:13:00
5:33 AM,66.2,64.4,94,29.99,7.0,Calm,Calm,-,N/A,,Scattered Clouds,0,2013-07-18 10:33:00
5:53 AM,66.2,64.4,94,30.00,2.5,WSW,4.6,-,N/A,Rain-Thunderstorm,Heavy Thunderstorms and Rain,240,2013-07-18 10:53:00
6:13 AM,66.2,64.4,94,29.98,5.0,SE,5.8,-,N/A,,Mostly Cloudy,140,2013-07-18 11:13:00
6:33 AM,68.0,66.2,94,29.97,5.0,ESE,3.5,-,N/A,,Scattered Clouds,110,2013-07-18 11:33:00
6:53 AM,68.0,66.2,94,29.96,3.0,SE,3.5,-,N/A,,Mostly Cloudy,130,2013-07-18 11:53:00
7:13 AM,68.0,66.2,94,29.94,2.0,SE,3.5,-,N/A,,Overcast,140,2013-07-18 12:13:00
7:33 AM,68.0,66.2,94,29.93,0.8,SE,3.5,-,N/A,Thunderstorm,Overcast,140,2013-07-18 12:33:00
7:53 AM,69.8,68.0,94,29.92,4.0,South,4.6,-,N/A,,Mostly Cloudy,170,2013-07-18 12:53:00
8:13 AM,71.6,69.8,94,29.91,7.0,South,5.8,-,N/A,,Scattered Clouds,180,2013-07-18 13:13:00
8:33 AM,71.6,69.8,94,29.91,7.0,WSW,3.5,-,N/A,Thunderstorm,Scattered Clouds,250,2013-07-18 13:33:00
8:53 AM,71.6,69.8,94,29.92,7.0,North,5.8,-,N/A,,Mostly Cloudy,350,2013-07-18 13:53:00
9:13 AM,69.8,66.2,88,29.91,10.0,NNW,4.6,-,N/A,,Mostly Cloudy,330,2013-07-18 14:13:00
9:33 AM,69.8,66.2,88,29.90,10.0,ENE,4.6,-,N/A,,Overcast,60,2013-07-18 14:33:00
9:53 AM,71.6,66.2,83,29.89,10.0,NE,3.5,-,N/A,,Overcast,50,2013-07-18 14:53:00
10:13 AM,71.6,68.0,88,29.88,10.0,Calm,Calm,-,N/A,,Mostly Cloudy,0,2013-07-18 15:13:00
10:33 AM,71.6,68.0,88,29.88,10.0,North,6.9,-,N/A,,Mostly Cloudy,10,2013-07-18 15:33:00
10:53 AM,71.6,66.2,83,29.88,10.0,Calm,Calm,-,N/A,,Scattered Clouds,0,2013-07-18 15:53:00
11:13 AM,71.6,68.0,88,29.88,10.0,North,4.6,-,N/A,,Scattered Clouds,10,2013-07-18 16:13:00
11:33 AM,75.2,68.0,78,29.88,10.0,North,8.1,-,N/A,,Scattered Clouds,350,2013-07-18 16:33:00
11:53 AM,73.4,69.8,88,29.86,10.0,North,3.5,-,N/A,,Scattered Clouds,10,2013-07-18 16:53:00
12:13 PM,75.2,69.8,83,29.85,10.0,Calm,Calm,-,N/A,,Scattered Clouds,0,2013-07-18 17:13:00
12:33 PM,78.8,71.6,78,29.84,10.0,Calm,Calm,-,N/A,,Clear,0,2013-07-18 17:33:00
12:53 PM,80.6,71.6,74,29.83,10.0,Calm,Calm,-,N/A,,Clear,0,2013-07-18 17:53:00
1:13 PM,82.4,71.6,70,29.82,10.0,Calm,Calm,-,N/A,,Clear,0,2013-07-18 18:13:00
1:33 PM,82.4,73.4,74,29.81,10.0,South,6.9,-,N/A,,Clear,190,2013-07-18 18:33:00
1:53 PM,84.2,73.4,70,29.79,10.0,SSW,10.4,-,N/A,,Clear,210,2013-07-18 18:53:00
2:13 PM,86.0,73.4,66,29.78,10.0,SSW,10.4,-,N/A,,Clear,210,2013-07-18 19:13:00
2:33 PM,86.0,73.4,66,29.77,10.0,SSW,12.7,18.4,N/A,,Clear,200,2013-07-18 19:33:00
2:53 PM,87.8,73.4,62,29.76,10.0,SSW,10.4,-,N/A,,Clear,210,2013-07-18 19:53:00
3:13 PM,87.8,71.6,58,29.75,10.0,SSW,13.8,20.7,N/A,,Clear,210,2013-07-18 20:13:00
3:33 PM,86.0,71.6,62,29.74,10.0,SW,16.1,24.2,N/A,,Clear,220,2013-07-18 20:33:00
3:53 PM,87.8,71.6,58,29.73,10.0,SW,13.8,19.6,N/A,,Clear,220,2013-07-18 20:53:00
4:13 PM,87.8,71.6,58,29.73,10.0,SW,15.0,23.0,N/A,,Clear,220,2013-07-18 21:13:00
4:33 PM,87.8,71.6,58,29.72,10.0,SSW,16.1,26.5,N/A,,Clear,210,2013-07-18 21:33:00
4:53 PM,87.8,71.6,58,29.71,10.0,SW,18.4,25.3,N/A,,Clear,220,2013-07-18 21:53:00
5:13 PM,87.8,71.6,58,29.71,10.0,SW,20.7,29.9,N/A,,Clear,220,2013-07-18 22:13:00
5:33 PM,87.8,71.6,58,29.70,10.0,SW,15.0,21.9,N/A,Thunderstorm,Clear,230,2013-07-18 22:33:00
5:53 PM,87.8,71.6,58,29.69,10.0,SW,13.8,20.7,N/A,,Clear,220,2013-07-18 22:53:00
6:13 PM,87.8,73.4,62,29.68,10.0,SW,11.5,19.6,N/A,,Clear,230,2013-07-18 23:13:00
6:33 PM,86.0,71.6,62,29.67,10.0,SW,10.4,21.9,N/A,,Clear,220,2013-07-18 23:33:00
6:53 PM,82.4,73.4,74,29.68,10.0,SW,6.9,-,N/A,,Scattered Clouds,230,2013-07-18 23:53:00
7:13 PM,82.4,71.6,70,29.68,10.0,SW,8.1,-,N/A,,Scattered Clouds,230,2013-07-19 00:13:00
7:33 PM,82.4,71.6,70,29.67,10.0,SW,8.1,-,N/A,,Scattered Clouds,230,2013-07-19 00:33:00
7:53 PM,82.4,71.6,70,29.66,10.0,SW,9.2,-,N/A,,Clear,230,2013-07-19 00:53:00
8:13 PM,82.4,71.6,70,29.66,10.0,SW,6.9,-,N/A,Rain,Light Rain,230,2013-07-19 01:13:00
8:33 PM,80.6,71.6,74,29.66,10.0,WSW,4.6,-,N/A,Rain,Light Rain,250,2013-07-19 01:33:00
8:53 PM,80.6,71.6,74,29.66,10.0,West,6.9,-,N/A,Thunderstorm,Clear,260,2013-07-19 01:53:00
9:13 PM,78.8,71.6,78,29.67,10.0,West,3.5,-,N/A,,Clear,260,2013-07-19 02:13:00
9:33 PM,75.2,69.8,83,29.67,7.0,WSW,6.9,-,N/A,Rain-Thunderstorm,Light Thunderstorms and Rain,240,2013-07-19 02:33:00
9:53 PM,73.4,66.2,78,29.71,2.5,NW,6.9,17.3,N/A,Rain-Thunderstorm,Heavy Thunderstorms and Rain,310,2013-07-19 02:53:00
10:13 PM,69.8,64.4,83,29.67,4.0,North,5.8,-,N/A,Rain,Heavy Rain,360,2013-07-19 03:13:00
10:33 PM,69.8,66.2,88,29.68,10.0,Calm,Calm,-,N/A,,Scattered Clouds,0,2013-07-19 03:33:00
10:53 PM,69.8,66.2,88,29.69,10.0,South,3.5,-,N/A,,Scattered Clouds,170,2013-07-19 03:53:00
11:13 PM,69.8,66.2,88,29.69,7.0,Calm,Calm,-,N/A,,Scattered Clouds,0,2013-07-19 04:13:00
11:33 PM,69.8,66.2,88,29.69,5.0,Calm,Calm,-,N/A,,Scattered Clouds,0,2013-07-19 04:33:00
11:53 PM,68.0,66.2,94,29.68,1.2,Calm,Calm,-,N/A,,Mist,0,2013-07-19 04:53:00